Погода в Семендяеве

Россия / Тверская область     57°18′18″N   38°13′19″E
темп.,
°C
ветер,
м/с
пор.,
м/с
влажн.,
%
обл.,
%
осадки,
мм/ч
давл.,
гПа
погр.,
м
21 апреля, ср
ср2100:00+3в51296100 0.4 1015893
03:00+3в51296100 1.8 1012744
06:00+1всв51396100 1.8 1008606
09:00+1всв41197100 4.1 1004457
12:00+1с36100100 5.6 1001269
15:00+1зюз4998100 7.0 1003397
18:00+2юз4896100 0.0 1006858
21:00+2юз3896100 0.1 1009517
22 апреля, чт
чт2200:00+2ююз3898100 0.1 1010302
03:00+3ю379843 0.1 1012209
06:00+2ю3797100 0.0 1012198
09:00+7ююз488562 0.0 1013480
12:00+10ююз576669 0.2 10141362
15:00+12ююз575869 0.3 10141907
18:00+10ю49675 0.0 1014674
21:00+7ююв412845 0.0 1016330
23 апреля, пт
пт2300:00+6ююв5148744 0.0 1015376
03:00+5ююв4129236 0.0 1015333
06:00+5ююв4129456 0.0 1015336
09:00+11ююв5127833 0.0 1015570
12:00+15ю6106340 0.1 10141396
15:00+15ю696199 1.8 10141654
18:00+13ю51168100 2.1 1014724
21:00+11ююв5147741 2.4 1014563
24 апреля, сб
сб2400:00+9ююв515828 0.1 1012496
03:00+8юв515855 0.1 1010459
06:00+8юв5148717 0.1 1009505
09:00+11ююв6127878 0.3 10071018
12:00+14ююв71569100 1.1 10051968
15:00+3зюз3697100 6.1 1007405
18:00+4з4894100 3.4 1008697
21:00+4зюз2493100 3.5 1008230
25 апреля, вс
вс2500:00+3юз2496100 0.1 1008106
03:00+2юз2595100 0.1 1008124
06:00+1юз379319 0.0 1009243
09:00+5зюз46725 0.0 1009730
12:00+7зюз5659100 0.2 10101668
15:00+6зюз575964 0.4 10121470
18:00+5з46635 0.0 1013953
21:00+2ююв11774 0.0 101310